This is the latest recevied weather packets stored in our database for station/object KE8CZD. If no packets are shown the sender has not sent any weather packets the latest 10 day(s).
| Time | Temp. | Humidity | Pressure | Rain* | Wind** | Luminosity | Snow |
|---|---|---|---|---|---|---|---|
| 1778155245 | 5.56° C | 72% | 1010.1 hPa | 0 mm | - | - | - |
| 1778154885 | 5.56° C | 77% | 1010.3 hPa | 0 mm | - | - | - |
| 1778154525 | 5° C | 78% | 1010.4 hPa | 0 mm | - | - | - |
| 1778154165 | 4.44° C | 79% | 1010.3 hPa | 0 mm | - | - | - |
| 1778153805 | 3.89° C | 80% | 1010.4 hPa | 0 mm | - | - | - |
| 1778153444 | 3.89° C | 81% | 1010.3 hPa | 0 mm | - | - | - |
| 1778153085 | 3.33° C | 80% | 1010.3 hPa | 0 mm | - | - | - |
| 1778152725 | 2.78° C | 80% | 1010.3 hPa | 0 mm | - | - | - |
| 1778152365 | 2.78° C | 80% | 1010.3 hPa | 0 mm | - | - | - |
| 1778152005 | 2.78° C | 80% | 1010.4 hPa | 0 mm | - | - | - |
| 1778151646 | 2.78° C | 78% | 1010.2 hPa | 0 mm | - | - | - |
| 1778151284 | 2.78° C | 77% | 1010.1 hPa | 0 mm | - | - | - |
| 1778150924 | 2.22° C | 77% | 1010 hPa | 0 mm | - | - | - |
| 1778150564 | 2.22° C | 76% | 1010.1 hPa | 0 mm | - | - | - |
| 1778150205 | 2.22° C | 76% | 1010.1 hPa | 0 mm | - | - | - |
| 1778149845 | 2.22° C | 75% | 1010 hPa | 0 mm | - | - | - |
| 1778149485 | 2.78° C | 75% | 1010 hPa | 0 mm | - | - | - |
| 1778149124 | 2.78° C | 77% | 1009.9 hPa | 0 mm | - | - | - |
| 1778148765 | 2.78° C | 79% | 1009.9 hPa | 0 mm | - | - | - |
| 1778148405 | 2.78° C | 80% | 1009.9 hPa | 0 mm | - | - | - |
| 1778148044 | 2.78° C | 80% | 1009.9 hPa | 0 mm | - | - | - |
| 1778147685 | 3.33° C | 78% | 1009.8 hPa | 0 mm | - | - | - |
| 1778147324 | 3.33° C | 78% | 1009.9 hPa | 0 mm | - | - | - |
| 1778146965 | 3.33° C | 77% | 1010 hPa | 0 mm | - | - | - |
| 1778146604 | 3.33° C | 76% | 1010 hPa | 0 mm | - | - | - |
* Rain latest hour (hover to see other rain measurements)
** Current wind speed in m/s (hover to see current wind gust speed)